TimeGMT,TemperatureF,Dew PointF,Humidity,Sea Level PressureIn,VisibilityMPH,Wind Direction,Wind SpeedMPH,Gust SpeedMPH,PrecipitationIn,Events,Conditions,WindDirDegrees,DateUTC
12:50 AM,46.4,41.0,81,29.12,6.2,West,19.6,-,N/A,,Mostly Cloudy,270,2012-11-02 00:50:00
1:50 AM,48.2,39.2,71,29.12,6.2,West,18.4,-,N/A,,Mostly Cloudy,270,2012-11-02 01:50:00
2:50 AM,48,39,61,29.15,18,West,16.1,,,,Mostly Cloudy,260,2012-11-02 02:50:00
2:50 AM,48.2,39.2,71,29.12,6.2,West,16.1,-,N/A,,Mostly Cloudy,260,2012-11-02 02:50:00
3:50 AM,46.4,39.2,76,29.12,6.2,West,21.9,36.8,N/A,,Scattered Clouds,260,2012-11-02 03:50:00
4:50 AM,46.4,37.4,71,29.15,6.2,West,26.5,40.3,N/A,,Mostly Cloudy,270,2012-11-02 04:50:00
5:50 AM,47,39,67,29.16,13,West,15.0,,,,Scattered Clouds,270,2012-11-02 05:50:00
5:50 AM,46.4,39.2,76,29.15,6.2,West,15.0,-,N/A,,Scattered Clouds,270,2012-11-02 05:50:00
6:50 AM,44.6,39.2,81,29.15,6.2,West,36.8,50.6,N/A,,Mostly Cloudy,270,2012-11-02 06:50:00
7:50 AM,46.4,39.2,76,29.15,6.2,WSW,17.3,-,N/A,,Scattered Clouds,240,2012-11-02 07:50:00
8:50 AM,46,38,65,29.18,12,West,16.1,,,,Scattered Clouds,260,2012-11-02 08:50:00
8:50 AM,46.4,37.4,71,29.18,6.2,West,16.1,-,N/A,,Scattered Clouds,260,2012-11-02 08:50:00
9:50 AM,46.4,39.2,76,29.18,6.2,West,16.1,-,N/A,,Scattered Clouds,260,2012-11-02 09:50:00
10:50 AM,48.2,39.2,71,29.21,6.2,West,18.4,-,N/A,Rain,Light Rain Showers,270,2012-11-02 10:50:00
11:50 AM,49,39,58,29.22,22,West,19.6,,,,,270,2012-11-02 11:50:00
11:50 AM,50.0,39.2,66,29.21,6.2,West,19.6,-,N/A,,Partly Cloudy,270,2012-11-02 11:50:00
12:50 PM,50.0,41.0,71,29.24,6.2,West,17.3,-,N/A,,Partly Cloudy,270,2012-11-02 12:50:00
1:50 PM,51.8,39.2,62,29.24,6.2,West,16.1,-,N/A,,Unknown,270,2012-11-02 13:50:00
2:50 PM,51,40,56,29.26,19,West,18.4,,,,Scattered Clouds,270,2012-11-02 14:50:00
2:50 PM,50.0,39.2,66,29.24,6.2,West,18.4,-,N/A,,Partly Cloudy,270,2012-11-02 14:50:00
3:50 PM,50.0,39.2,66,29.27,6.2,West,19.6,-,N/A,,Unknown,270,2012-11-02 15:50:00
4:50 PM,50.0,39.2,66,29.27,6.2,West,19.6,-,N/A,,Unknown,260,2012-11-02 16:50:00
5:50 PM,49,38,54,29.30,11,West,15.0,,,,,270,2012-11-02 17:50:00
5:50 PM,50.0,37.4,62,29.30,6.2,West,15.0,-,N/A,,Unknown,270,2012-11-02 17:50:00
6:50 PM,48.2,39.2,71,29.30,6.2,West,10.4,-,N/A,,Partly Cloudy,280,2012-11-02 18:50:00
7:50 PM,44.6,41.0,87,29.33,1.9,WSW,18.4,-,N/A,,Scattered Clouds,250,2012-11-02 19:50:00
8:50 PM,45,39,71,29.33,16,WNW,6.9,,,,Partly Cloudy,290,2012-11-02 20:50:00
8:50 PM,44.6,39.2,81,29.33,6.2,WNW,6.9,-,N/A,,Scattered Clouds,290,2012-11-02 20:50:00
9:50 PM,44.6,39.2,81,29.33,6.2,SSW,13.8,-,N/A,,Scattered Clouds,210,2012-11-02 21:50:00
10:50 PM,46.4,39.2,76,29.30,6.2,West,10.4,-,N/A,,Mostly Cloudy,280,2012-11-02 22:50:00
11:50 PM,41,39,92,29.32,10,ESE,8.1,,,,Scattered Clouds,120,2012-11-02 23:50:00
11:50 PM,41.0,39.2,93,29.30,6.2,ESE,8.1,-,N/A,,Scattered Clouds,120,2012-11-02 23:50:00